Santa Rosa, CA

7:29 PM PST on December 08, 2019 (GMT -0800)
Sonoma County

Weather History for KSTS - October, 2019

Change the Weather History Date:

Monday, October 28, 2019

  Actual Average Record
Temperature  
Mean Temperature 53 °F 58 °F  
Max Temperature 72 °F 72 °F 94 °F (2003)
Min Temperature 34 °F 43 °F 34 °F (2004)
Degree Days  
Heating Degree Days 12    
Month to date heating degree days 129  
Since 1 July heating degree days 165  
Cooling Degree Days 0    
Month to date cooling degree days 29  
Year to date cooling degree days 569  
Growing Degree Days 2 (Base 50)    
Moisture  
Dew Point 21 °F    
Average Humidity 38    
Maximum Humidity 64    
Minimum Humidity 11    
Precipitation  
Precipitation 0.00 in 0.10 in 1.16 in (2000)
Month to date precipitation 0.02 1.70  
Year to date precipitation 38.54 24.23  
Sea Level Pressure  
Sea Level Pressure 30.03 in    
Wind  
Wind Speed 3 mph (WNW)    
Max Wind Speed 13 mph    
Max Gust Speed 16 mph    
Visibility 6 miles    
Events      
T = Trace of Precipitation, MM = Missing Value Source: NWS Daily Summary

Daily Weather History Graph

Daily Weather History Graph

Search for Another Location

Airport or City:

Astronomy

Oct. 28, 2019 Rise Set
Actual Time 7:33 AM PDT 6:16 PM PDT
Civil Twilight 7:06 AM PDT 6:43 PM PDT
Nautical Twilight 6:34 AM PDT 7:14 PM PDT
Astronomical Twilight 6:04 AM PDT 7:45 PM PDT
Moon 8:01 AM PDT (10/28) 7:04 PM PDT (10/28)
Length of Visible Light 11h 37m
Length of Day
10h 42m
New Moon, 1% of the Moon is Illuminated
Oct 28
New Moon
Nov 4
First Quarter
Nov 12
Full
Nov 19
Last Quarter
Nov 26
New

Hourly Weather History & Observations

Time (PDT) Temp. Windchill Dew Point Humidity Pressure Visibility Wind Dir Wind Speed Gust Speed Precip Events Conditions
12:53 AM 57.0 °F - 12.9 °F 18% 29.99 in 6.0 mi North 12.7 mph 23.0 mph N/A   Smoke
1:53 AM 48.9 °F - 19.0 °F 31% 30.00 in 9.0 mi NNW 9.2 mph - N/A   Smoke
2:53 AM 42.1 °F - 21.0 °F 43% 30.01 in 10.0 mi Calm Calm - N/A   Smoke
3:53 AM 39.9 °F 37.8 °F 21.0 °F 47% 30.00 in 10.0 mi West 3.5 mph - N/A   Smoke
4:53 AM 39.0 °F 36.8 °F 23.0 °F 53% 30.01 in 10.0 mi NW 3.5 mph - N/A   Smoke
5:53 AM 37.0 °F 33.3 °F 26.1 °F 65% 30.01 in 10.0 mi NNW 4.6 mph - N/A   Smoke
5:57 AM 35.1 °F 31.0 °F 26.1 °F 70% 30.03 in 10.0 mi NNW 4.6 mph - N/A   Smoke
6:53 AM 36.0 °F - 24.1 °F 62% 30.03 in 10.0 mi Calm Calm - N/A   Smoke
7:33 AM 35.1 °F - 24.1 °F 64% 30.05 in 10.0 mi Calm Calm - N/A   Smoke
7:53 AM 35.1 °F - 25.0 °F 67% 30.04 in 10.0 mi Calm Calm - N/A   Smoke
8:53 AM 37.0 °F - 24.1 °F 59% 30.07 in 10.0 mi Calm Calm - N/A   Smoke
9:18 AM 41.0 °F - 27.0 °F 57% 30.09 in 10.0 mi Calm Calm - N/A   Smoke
9:28 AM 43.0 °F - 26.1 °F 51% 30.10 in 10.0 mi Calm Calm - N/A   Smoke
9:53 AM 46.9 °F - 25.0 °F 42% 30.08 in 10.0 mi NNW 4.6 mph - N/A   Smoke
10:14 AM 50.0 °F - 24.1 °F 36% 30.10 in 5.0 mi NW 3.5 mph - N/A   Smoke
10:21 AM 51.1 °F - 24.1 °F 35% 30.10 in 2.5 mi NNW 3.5 mph - N/A   Smoke
10:31 AM 51.1 °F - 23.0 °F 33% 30.09 in 1.2 mi Calm Calm - N/A   Smoke
10:51 AM 53.6 °F - 21.2 °F 28% 30.10 in 0.8 mi Calm Calm - N/A   Smoke
10:53 AM 54.0 °F - 21.9 °F 29% 30.08 in 0.8 mi Calm Calm - N/A   Smoke
11:22 AM 59.0 °F - 19.9 °F 22% 30.09 in 1.0 mi Calm Calm - N/A   Smoke
11:40 AM 60.1 °F - 21.0 °F 22% 30.08 in 1.5 mi WNW 3.5 mph - N/A   Smoke
11:53 AM 62.1 °F - 19.9 °F 20% 30.06 in 1.8 mi Calm Calm - N/A   Smoke
12:21 PM 64.0 °F - 15.1 °F 15% 30.07 in 2.0 mi Calm Calm - N/A   Smoke
12:53 PM 66.9 °F - 15.1 °F 14% 30.04 in 2.0 mi Calm Calm - N/A   Smoke
1:12 PM 66.9 °F - 14.0 °F 13% 30.05 in 3.0 mi Variable 4.6 mph - N/A   Smoke
1:53 PM 70.0 °F - 15.1 °F 12% 30.01 in 4.0 mi Variable 4.6 mph - N/A   Smoke
2:32 PM 70.0 °F - 16.0 °F 13% 30.01 in 3.0 mi Calm Calm - N/A   Smoke
2:53 PM 70.0 °F - 17.1 °F 13% 29.99 in 4.0 mi SSW 6.9 mph - N/A   Smoke
3:53 PM 69.1 °F - 14.0 °F 12% 29.99 in 6.0 mi West 11.5 mph - N/A   Smoke
4:53 PM 66.0 °F - 15.1 °F 14% 29.99 in 7.0 mi WSW 8.1 mph - N/A   Smoke
5:53 PM 62.1 °F - 16.0 °F 17% 29.99 in 7.0 mi SW 5.8 mph - N/A   Smoke
6:53 PM 53.1 °F - 21.0 °F 29% 29.99 in 8.0 mi SSE 4.6 mph - N/A   Smoke
7:53 PM 50.0 °F - 23.0 °F 35% 29.99 in 9.0 mi SE 5.8 mph - N/A   Smoke
8:53 PM 48.9 °F - 26.1 °F 41% 29.99 in 9.0 mi ESE 4.6 mph - N/A   Smoke
9:53 PM 44.1 °F - 26.1 °F 49% 29.99 in 9.0 mi Calm Calm - N/A   Smoke
10:53 PM 44.1 °F - 27.0 °F 51% 29.99 in 9.0 mi Calm Calm - N/A   Smoke
11:53 PM 39.9 °F - 27.0 °F 60% 29.98 in 8.0 mi Calm Calm - N/A   Smoke